This is the latest recevied weather packets stored in our database for station/object OM8AGG-15. If no packets are shown the sender has not sent any weather packets the latest 10 day(s).
| Time | Temp. | Humidity | Pressure | Rain* | Wind** | Luminosity | Snow |
|---|---|---|---|---|---|---|---|
| 1778055426 | 18.89° C | 48% | 1011.1 hPa | - | - | - | - |
| 1778054526 | 18.33° C | 49% | 1011.1 hPa | - | - | - | - |
| 1778053626 | 17.78° C | 50% | 1011.1 hPa | - | - | - | - |
| 1778052726 | 17.78° C | 50% | 1011 hPa | - | - | - | - |
| 1778051826 | 17.78° C | 49% | 1011.1 hPa | - | - | - | - |
| 1778050926 | 16.67° C | 51% | 1011.1 hPa | - | - | - | - |
| 1778050026 | 16.67° C | 51% | 1011 hPa | - | - | - | - |
| 1778049125 | 16.67° C | 51% | 1010.7 hPa | - | - | - | - |
| 1778048225 | 16.11° C | 51% | 1010.8 hPa | - | - | - | - |
| 1778047325 | 15° C | 52% | 1010.8 hPa | - | - | - | - |
| 1778046425 | 13.89° C | 53% | 1010.7 hPa | - | - | - | - |
| 1778045525 | 14.44° C | 51% | 1010.8 hPa | - | - | - | - |
| 1778044625 | 13.89° C | 52% | 1010.6 hPa | - | - | - | - |
| 1778043725 | 12.78° C | 54% | 1010.3 hPa | - | - | - | - |
| 1778042825 | 12.22° C | 55% | 1010.2 hPa | - | - | - | - |
| 1778041925 | 11.67° C | 57% | 1009.9 hPa | - | - | - | - |
| 1778041024 | 11.67° C | 56% | 1009.9 hPa | - | - | - | - |
| 1778040124 | 11.11° C | 57% | 1010 hPa | - | - | - | - |
| 1778039224 | 11.11° C | 58% | 1010 hPa | - | - | - | - |
| 1778038324 | 11.11° C | 58% | 1010 hPa | - | - | - | - |
| 1778037424 | 10.56° C | 59% | 1010 hPa | - | - | - | - |
| 1778036523 | 11.11° C | 57% | 1010.1 hPa | - | - | - | - |
| 1778035623 | 11.11° C | 56% | 1010.1 hPa | - | - | - | - |
| 1778034723 | 11.67° C | 54% | 1010.2 hPa | - | - | - | - |
| 1778033823 | 11.11° C | 56% | 1010.1 hPa | - | - | - | - |
* Rain since midnight (hover to see other rain measurements)
** Current wind speed in m/s (hover to see current wind gust speed)